• In Uzbekistan
  • List of Countries
  • For 7 days
  • Water Temperature
  • Weather Map
  • Weather Widgets
  • user-avatar
    Login

    Hourly Weather Islamabad

    Today, 26 January, Sunday

    Time Temperature Precipitation Wind Pressure Humidity
    00:00 +10°C° 0 mm 1 mps 716 mmHg 67%
    01:00 +10°C° 0 mm 1 mps 716 mmHg 68%
    02:00 +10°C° 0 mm 1 mps 715 mmHg 69%
    03:00 +10°C° 0 mm 1 mps 715 mmHg 70%
    04:00 +10°C° 0 mm 1 mps 715 mmHg 71%
    05:00 +9°C° 0 mm 1 mps 715 mmHg 71%
    06:00 +10°C° 0 mm 1 mps 716 mmHg 70%
    07:00 +10°C° 0 mm 1 mps 716 mmHg 68%
    08:00 +11°C° 0 mm 1 mps 717 mmHg 67%
    09:00 +13°C° 0 mm 2 mps 717 mmHg 60%
    10:00 +15°C° 0 mm 2 mps 717 mmHg 54%
    11:00 +17°C° 0 mm 2 mps 718 mmHg 45%
    12:00 +18°C° 0 mm 2 mps 718 mmHg 43%
    13:00 +18°C° 0 mm 2 mps 717 mmHg 41%
    14:00 +19°C° 0 mm 3 mps 717 mmHg 38%
    15:00 +18°C° 0 mm 2 mps 716 mmHg 42%
    16:00 +17°C° 0 mm 2 mps 716 mmHg 46%
    17:00 +16°C° 0 mm 2 mps 715 mmHg 50%
    18:00 +15°C° 0 mm 2 mps 715 mmHg 53%
    19:00 +14°C° 0 mm 2 mps 715 mmHg 56%
    20:00 +12°C° 0 mm 2 mps 715 mmHg 59%
    21:00 +12°C° 0 mm 2 mps 715 mmHg 60%
    22:00 +12°C° 0 mm 1 mps 715 mmHg 62%
    23:00 +11°C° 0 mm 1 mps 715 mmHg 63%

    Tomorrow, 27 January, Monday

    Time Temperature Precipitation Wind Pressure Humidity
    00:00 +11°C° 0 mm 1 mps 715 mmHg 64%
    01:00 +10°C° 0 mm 1 mps 714 mmHg 64%
    02:00 +9°C° 0 mm 2 mps 714 mmHg 64%
    03:00 +10°C° 0 mm 1 mps 714 mmHg 64%
    04:00 +9°C° 0 mm 1 mps 713 mmHg 64%
    05:00 +9°C° 0 mm 1 mps 713 mmHg 64%
    06:00 +9°C° 0 mm 1 mps 714 mmHg 62%
    07:00 +10°C° 0 mm 1 mps 714 mmHg 60%
    08:00 +10°C° 0 mm 1 mps 714 mmHg 58%
    09:00 +12°C° 0 mm 1 mps 715 mmHg 52%
    10:00 +14°C° 0 mm 1 mps 715 mmHg 46%
    11:00 +16°C° 0 mm 1 mps 715 mmHg 39%
    12:00 +18°C° 0 mm 1 mps 715 mmHg 38%
    13:00 +18°C° 0 mm 1 mps 714 mmHg 36%
    14:00 +19°C° 0 mm 1 mps 714 mmHg 35%
    15:00 +17°C° 0 mm 2 mps 714 mmHg 38%
    16:00 +17°C° 0 mm 2 mps 713 mmHg 41%
    17:00 +16°C° 0 mm 2 mps 713 mmHg 44%
    18:00 +15°C° 0 mm 2 mps 713 mmHg 45%
    19:00 +14°C° 0 mm 2 mps 713 mmHg 45%
    20:00 +13°C° 0 mm 2 mps 713 mmHg 46%
    21:00 +13°C° 0 mm 2 mps 713 mmHg 46%
    22:00 +13°C° 0 mm 2 mps 713 mmHg 47%
    23:00 +13°C° 0 mm 1 mps 713 mmHg 47%

    Day after tomorrow, 28 January, Tuesday

    Time Temperature Precipitation Wind Pressure Humidity
    00:00 +13°C° 0 mm 2 mps 712 mmHg 46%
    01:00 +13°C° 0 mm 2 mps 712 mmHg 45%
    02:00 +13°C° 0 mm 2 mps 712 mmHg 43%
    03:00 +12°C° 0 mm 2 mps 712 mmHg 43%
    04:00 +12°C° 0 mm 2 mps 711 mmHg 43%
    05:00 +12°C° 0 mm 2 mps 711 mmHg 43%
    06:00 +12°C° 0 mm 1 mps 711 mmHg 45%
    07:00 +12°C° 0 mm 1 mps 712 mmHg 47%
    08:00 +12°C° 0 mm 1 mps 712 mmHg 49%
    09:00 +12°C° 0.2 mm 1 mps 713 mmHg 51%
    10:00 +12°C° 0.2 mm 2 mps 713 mmHg 53%
    11:00 +12°C° 0.2 mm 2 mps 713 mmHg 55%
    12:00 +12°C° 0.5 mm 2 mps 713 mmHg 59%
    13:00 +12°C° 0.5 mm 2 mps 713 mmHg 62%
    14:00 +10°C° 0.5 mm 3 mps 712 mmHg 65%
    15:00 +10°C° 0.3 mm 2 mps 712 mmHg 69%
    16:00 +10°C° 0.3 mm 2 mps 712 mmHg 73%
    17:00 +10°C° 0.3 mm 1 mps 712 mmHg 77%
    18:00 +10°C° 0.1 mm 1 mps 712 mmHg 77%
    19:00 +10°C° 0.1 mm 1 mps 713 mmHg 77%
    20:00 +10°C° 0.1 mm 1 mps 713 mmHg 77%
    21:00 +10°C° 0.3 mm 1 mps 713 mmHg 79%
    22:00 +10°C° 0.3 mm 1 mps 713 mmHg 80%
    23:00 +10°C° 0.3 mm 1 mps 713 mmHg 81%

    29 January, Wednesday

    Time Temperature Precipitation Wind Pressure Humidity
    00:00 +10°C° 0.1 mm 1 mps 713 mmHg 80%
    01:00 +9°C° 0.1 mm 2 mps 712 mmHg 78%
    02:00 +9°C° 0.1 mm 2 mps 712 mmHg 77%
    03:00 +10°C° 0.1 mm 1 mps 712 mmHg 78%
    04:00 +9°C° 0.1 mm 1 mps 712 mmHg 78%
    05:00 +9°C° 0.1 mm 1 mps 712 mmHg 78%
    06:00 +10°C° 0 mm 1 mps 713 mmHg 78%
    07:00 +10°C° 0 mm 1 mps 713 mmHg 77%
    08:00 +10°C° 0 mm 1 mps 714 mmHg 77%
    09:00 +11°C° 0 mm 1 mps 714 mmHg 73%
    10:00 +12°C° 0 mm 1 mps 715 mmHg 69%
    11:00 +13°C° 0 mm 1 mps 716 mmHg 66%
    12:00 +13°C° 0.1 mm 1 mps 716 mmHg 65%
    13:00 +13°C° 0.1 mm 1 mps 716 mmHg 64%
    14:00 +14°C° 0.1 mm 1 mps 715 mmHg 63%
    15:00 +14°C° 0.1 mm 1 mps 715 mmHg 64%
    16:00 +14°C° 0.1 mm 1 mps 715 mmHg 65%
    17:00 +14°C° 0.1 mm 1 mps 715 mmHg 66%
    18:00 +12°C° 0 mm 1 mps 715 mmHg 70%
    19:00 +11°C° 0 mm 1 mps 716 mmHg 74%
    20:00 +10°C° 0 mm 1 mps 716 mmHg 78%
    21:00 +10°C° 0 mm 1 mps 716 mmHg 78%
    22:00 +10°C° 0 mm 1 mps 716 mmHg 78%
    23:00 +10°C° 0 mm 1 mps 716 mmHg 78%

    30 January, Thursday

    Time Temperature Precipitation Wind Pressure Humidity
    00:00 +9°C° 0 mm 1 mps 716 mmHg 77%
    01:00 +9°C° 0 mm 1 mps 716 mmHg 76%
    02:00 +9°C° 0 mm 1 mps 716 mmHg 75%
    03:00 +9°C° 0 mm 1 mps 716 mmHg 74%
    04:00 +8°C° 0 mm 1 mps 716 mmHg 74%
    05:00 +8°C° 0 mm 1 mps 716 mmHg 73%
    06:00 +9°C° 0 mm 1 mps 716 mmHg 72%
    07:00 +9°C° 0 mm 1 mps 716 mmHg 71%
    08:00 +9°C° 0 mm 1 mps 717 mmHg 70%
    09:00 +11°C° 0 mm 1 mps 717 mmHg 63%
    10:00 +13°C° 0 mm 1 mps 717 mmHg 56%
    11:00 +15°C° 0 mm 2 mps 718 mmHg 49%
    12:00 +16°C° 0 mm 2 mps 717 mmHg 45%
    13:00 +17°C° 0 mm 2 mps 717 mmHg 42%
    14:00 +17°C° 0 mm 2 mps 717 mmHg 38%
    15:00 +17°C° 0 mm 2 mps 716 mmHg 42%
    16:00 +16°C° 0 mm 2 mps 716 mmHg 45%
    17:00 +15°C° 0 mm 2 mps 716 mmHg 48%
    18:00 +14°C° 0 mm 2 mps 716 mmHg 49%
    19:00 +13°C° 0 mm 1 mps 716 mmHg 49%
    20:00 +11°C° 0 mm 1 mps 716 mmHg 50%
    21:00 +11°C° 0 mm 1 mps 716 mmHg 51%
    22:00 +11°C° 0 mm 1 mps 716 mmHg 52%
    23:00 +10°C° 0 mm 1 mps 716 mmHg 53%

    31 January, Friday

    Time Temperature Precipitation Wind Pressure Humidity
    00:00 +10°C° 0 mm 1 mps 715 mmHg 55%
    01:00 +10°C° 0 mm 1 mps 715 mmHg 57%
    02:00 +9°C° 0 mm 1 mps 715 mmHg 58%
    03:00 +9°C° 0 mm 1 mps 714 mmHg 59%
    04:00 +9°C° 0 mm 1 mps 714 mmHg 59%
    05:00 +8°C° 0 mm 1 mps 714 mmHg 59%
    06:00 +9°C° 0 mm 1 mps 714 mmHg 59%
    07:00 +9°C° 0 mm 1 mps 714 mmHg 58%
    08:00 +10°C° 0 mm 1 mps 715 mmHg 57%
    09:00 +11°C° 0 mm 1 mps 715 mmHg 51%
    10:00 +13°C° 0 mm 1 mps 715 mmHg 46%
    11:00 +15°C° 0 mm 1 mps 716 mmHg 40%
    12:00 +15°C° 0 mm 1 mps 715 mmHg 39%
    13:00 +16°C° 0 mm 1 mps 715 mmHg 38%
    14:00 +16°C° 0 mm 1 mps 715 mmHg 37%
    15:00 +16°C° 0 mm 1 mps 714 mmHg 40%
    16:00 +15°C° 0 mm 1 mps 714 mmHg 43%
    17:00 +14°C° 0 mm 1 mps 714 mmHg 45%
    18:00 +13°C° 0 mm 1 mps 714 mmHg 47%
    19:00 +12°C° 0 mm 1 mps 714 mmHg 48%
    20:00 +11°C° 0 mm 1 mps 715 mmHg 49%
    21:00 +11°C° 0 mm 1 mps 715 mmHg 51%
    22:00 +11°C° 0 mm 1 mps 715 mmHg 52%
    23:00 +10°C° 0 mm 1 mps 715 mmHg 54%
    Show more